Starlink 32527

operational
NORAD ID: 62319 Int'l Des: 2024-239 Owner: SPXS Country: US Constellation: starlink
LEOCIRCULAR

关于 Starlink 32527

正在加载描述...

实时位置

正在加载3D地球...

即将过境

高度历史

Altitude vs Time

uPlot chart will show altitude changes over time

两行轨道根数

1 62319U 24239U 25352.86242953 .00015675 00000-0 54022-3 0 9997
2 62319 53.1560 196.2320 0000767 82.6211 277.4877 15.30201043 57199
Epoch: Dec 18, 2025 • Age: 24 hours

当前状态

高度 475.1 km
速度 7.63 km/s
星下点 14.60°N, 169.82°E
发射日期 Dec 13, 2024
运行时间 1 years
类型 internet

技术详情

分类 Payload
质量 730.00 kg
干质量 700.00 kg
总质量 730.00 kg
长度 0.30 m
直径 4.10 m
跨度 29.00 m
形状 Box + pan
制造商 SPXS
平台类型 Starlink V2M
阶段状态 In Orbit
所有者/国家 SPXS/US

大型星座

Loading constellations...